Wind_Speed
15 15 16 14 11 8 8 9 10 12 11 12 13 14 15 15 14 13 14 15 16 19 22 22 24 26 23 20 17 17 22 25 23 21 22 21 22 23 23 24 24 24 22 21 23 24 26 27 28 29 30 30 29 29 28 28 28 28 28 27 27 27 27 26 26 26 26 26 26 26 26 27 26 26 27 28 28 28 29 30 29 27 26 24 23 24
16 17 15 10 9 9 11 12 13 14 13 14 15 15 16 16 14 13 15 16 17 21 23 22 25 27 24 22 20 19 22 23 22 22 22 21 21 21 22 22 22 22 23 23 25 26 28 29 30 32 32 32 32 31 30 30 30 29 29 29 29 29 28 27 28 28 28 28 28 28 28 28 28 28 28 28 28 28 29 31 30 29 29 27 25 25
18 18 14 10 11 11 13 15 15 15 15 15 15 16 16 15 15 14 14 15 16 19 23 23 27 29 25 24 22 21 24 23 21 21 20 19 20 19 20 20 21 22 23 23 24 26 28 29 31 33 34 34 34 34 33 33 32 32 31 31 30 30 29 29 29 29 29 29 29 29 29 30 29 29 29 29 30 30 30 32 32 31 31 30 27 26
18 14 13 14 14 14 14 15 15 15 16 15 15 16 15 13 14 13 13 15 16 20 23 25 31 33 28 26 23 21 23 22 19 19 19 19 20 19 19 21 22 23 23 24 25 27 29 30 32 32 32 33 34 34 34 34 34 34 34 33 32 32 31 31 31 31 31 30 30 30 30 31 31 30 30 30 30 30 30 31 33 33 33 31 28 27
17 13 12 13 13 14 15 14 14 14 13 13 14 15 14 12 12 15 15 17 20 23 24 27 31 33 29 25 22 20 20 19 17 19 18 18 20 21 22 23 23 24 25 25 26 27 29 30 31 32 32 33 33 33 33 33 34 35 35 35 35 35 34 33 33 32 32 32 31 31 31 32 33 32 31 30 30 30 30 31 32 34 33 31 29 28
20 18 17 14 12 13 14 14 12 11 12 14 15 15 13 12 13 15 15 16 21 22 22 21 15 18 27 27 23 23 22 20 18 19 18 17 20 24 25 24 23 24 25 25 25 27 28 28 29 30 31 32 32 32 33 33 34 34 35 36 36 37 36 35 35 33 33 33 33 32 32 32 33 33 31 30 29 29 30 31 33 34 33 31 29 29
23 21 20 18 17 17 17 16 13 13 15 17 18 15 14 14 14 14 14 15 18 17 19 19 10 15 32 32 25 26 25 20 17 16 17 17 20 23 22 22 20 20 21 22 22 23 25 26 27 28 29 30 31 32 33 34 34 35 35 35 35 36 37 37 36 35 34 34 34 33 33 34 33 33 31 31 30 30 31 33 34 34 33 31 30 30
23 21 21 21 21 21 21 19 15 15 18 19 18 15 14 13 12 12 14 15 18 22 26 26 20 20 32 34 27 27 25 21 19 15 15 17 19 21 21 19 18 17 17 17 17 19 20 22 23 25 26 27 28 30 31 32 33 34 35 36 36 36 36 37 36 36 35 35 35 35 35 35 35 34 32 32 31 31 32 33 34 34 33 31 31 30
21 20 21 21 22 23 22 18 16 16 18 20 18 15 13 11 12 14 15 16 19 25 24 22 19 15 26 38 33 29 28 24 20 14 13 17 19 20 20 18 17 16 15 15 16 17 19 20 21 23 24 25 26 27 28 28 30 32 33 35 37 37 37 36 36 37 37 36 36 36 36 36 36 36 34 32 32 32 32 33 34 34 33 31 31 30
23 23 21 21 23 22 20 16 16 16 18 19 17 16 14 12 14 14 15 18 17 19 18 15 14 10 22 42 36 30 32 24 18 15 14 19 19 19 20 17 16 16 15 15 17 19 20 22 23 24 24 24 25 26 27 28 28 28 29 30 32 34 36 36 36 36 37 37 37 37 37 37 37 37 35 33 33 32 32 33 34 33 32 31 31 30
29 27 25 26 25 23 21 18 17 17 17 18 16 14 12 12 15 14 16 17 10 12 15 12 13 9 13 35 37 30 28 23 20 14 11 17 18 15 16 15 14 14 15 18 20 22 23 23 24 24 24 24 25 26 26 27 27 27 27 27 27 28 31 33 34 36 36 36 37 37 36 37 37 36 35 33 33 32 32 33 33 32 31 31 30 30
32 31 30 31 30 28 26 23 20 18 18 19 18 15 12 9 11 12 13 10 3 7 9 5 8 12 14 29 35 30 28 27 22 10 6 13 13 10 12 14 15 17 19 21 22 23 23 22 22 22 23 23 23 24 24 24 24 25 25 26 26 26 26 28 31 33 34 35 35 36 36 36 36 35 34 33 32 32 32 33 33 31 30 30 29 29
36 37 35 33 34 33 30 25 22 21 22 21 20 17 11 4 4 6 5 3 6 11 10 5 7 15 28 39 37 31 29 23 13 6 8 10 9 8 14 17 20 23 22 21 21 22 21 21 22 22 22 22 22 22 22 22 23 23 24 25 25 25 25 26 28 30 32 33 34 35 36 36 35 35 33 32 32 32 33 33 33 31 30 29 28 29
32 34 38 38 38 37 35 33 29 26 25 24 25 21 14 5 1 3 3 2 7 12 11 9 9 15 30 34 27 21 18 12 9 11 19 17 11 13 19 21 24 24 21 19 20 21 22 22 21 21 21 21 21 22 22 23 24 24 24 24 24 24 24 25 27 29 30 31 32 34 35 36 35 34 32 32 32 32 33 34 33 31 30 29 29 30
25 23 32 36 36 37 38 37 35 32 27 25 27 25 23 19 11 6 4 3 5 5 3 7 8 12 19 18 13 13 16 17 20 25 25 18 15 16 19 22 23 21 18 19 21 21 21 20 20 20 20 20 20 21 21 22 23 24 24 24 23 23 23 24 25 27 28 29 30 32 33 34 34 33 32 32 32 32 33 34 33 32 30 30 30 31
25 25 30 28 27 29 29 30 32 32 28 25 26 27 30 32 24 12 8 9 6 5 5 10 15 27 34 33 32 31 33 34 30 27 18 12 14 14 15 17 18 17 18 20 21 19 18 18 18 18 18 18 18 18 19 20 21 23 24 24 24 23 23 23 24 26 28 29 30 29 30 31 32 32 32 32 32 32 33 34 34 32 31 31 32 33
23 26 30 26 25 26 23 22 25 27 26 25 29 34 35 31 24 15 11 11 5 4 12 16 25 41 43 42 44 37 31 28 21 17 13 11 15 15 13 15 17 18 21 21 19 17 18 18 17 17 16 16 17 17 18 19 20 22 23 23 24 24 24 24 24 25 28 30 30 29 28 28 30 32 32 32 32 33 33 34 34 33 33 33 33 34
26 24 27 25 24 26 26 24 24 26 28 28 31 35 33 25 20 16 8 3 1 3 11 17 27 37 33 30 34 25 18 20 17 17 18 15 14 13 13 17 20 23 24 21 18 17 18 17 16 17 17 16 17 17 18 19 20 20 21 22 23 23 23 23 24 25 27 30 31 31 29 28 29 32 33 33 33 34 34 34 34 34 34 34 34 35
33 27 26 25 21 22 24 25 25 28 31 34 33 28 24 18 15 17 12 3 3 2 5 14 22 30 35 38 38 33 28 25 21 19 15 10 9 12 16 20 23 24 24 20 18 18 18 18 18 17 17 18 18 19 19 19 19 20 20 22 22 22 23 23 24 26 27 29 31 33 33 31 30 32 34 34 34 34 35 34 34 35 35 35 35 36
37 27 22 24 24 21 23 27 31 34 35 36 34 28 25 20 16 20 19 11 7 4 3 9 11 23 41 45 38 33 27 21 17 12 8 7 11 16 19 23 23 22 21 18 16 18 20 20 19 18 17 18 19 20 20 20 20 20 20 21 22 22 23 23 24 25 26 27 29 32 33 33 32 32 34 36 35 35 35 34 34 35 35 35 36 37
40 32 24 23 22 21 26 31 34 37 36 36 37 34 32 30 22 18 20 21 14 4 3 3 5 26 46 41 31 28 21 15 11 10 10 10 17 19 20 22 23 22 19 16 15 18 21 21 21 22 21 20 20 21 21 21 21 21 21 21 21 22 23 23 23 24 25 25 27 29 31 32 32 33 34 36 36 35 35 34 35 35 36 36 37 37
40 40 35 30 27 29 36 37 35 35 34 34 37 36 36 39 34 19 12 22 24 12 8 5 3 29 49 42 36 36 26 15 12 12 17 20 16 20 22 22 23 23 19 15 16 19 21 22 24 26 26 24 22 21 22 24 24 24 23 22 22 22 22 23 24 25 25 25 25 26 28 31 32 33 34 36 36 35 35 35 35 36 36 36 38 38
40 41 38 37 39 39 38 35 32 32 33 34 36 37 39 42 43 30 13 17 24 21 20 10 5 30 51 46 44 44 32 22 19 19 22 16 14 18 21 23 25 26 21 17 21 25 23 23 27 27 26 25 24 22 23 25 27 27 26 25 25 24 24 24 25 26 26 26 26 26 27 29 30 32 33 35 35 35 34 35 35 36 37 37 39 40
36 36 33 34 37 36 34 34 33 30 31 35 39 42 43 44 45 40 27 22 19 20 23 11 5 31 50 46 47 47 36 31 28 23 14 14 16 19 22 26 28 27 21 20 29 33 29 28 31 30 28 28 27 25 25 27 28 29 29 29 29 28 27 27 26 27 27 27 27 26 26 27 28 30 32 33 35 34 35 36 36 37 38 38 40 41
32 36 34 24 17 18 21 23 28 33 35 39 42 42 44 46 44 40 35 26 15 21 29 16 10 36 50 46 48 46 38 35 29 21 17 16 17 22 25 27 28 28 25 29 35 34 31 34 35 33 33 33 30 29 28 29 29 30 31 31 32 31 30 29 28 28 29 28 28 28 26 26 26 28 30 32 34 35 35 37 37 38 38 39 41 42
34 39 39 28 14 12 15 18 28 40 43 44 45 44 45 46 45 43 39 29 21 31 39 27 26 47 54 49 51 49 44 40 31 23 22 20 19 25 29 27 26 29 32 35 36 34 35 39 37 34 35 34 32 30 29 30 30 31 32 32 33 33 32 32 30 29 30 29 29 28 27 26 25 26 29 32 34 35 36 37 38 38 39 40 41 42
35 38 41 40 36 33 35 37 41 43 43 44 47 49 50 48 47 46 40 33 34 41 43 43 47 55 57 55 55 54 51 47 38 27 25 26 26 26 28 27 27 31 34 34 34 36 40 40 36 35 36 34 32 30 29 31 31 32 33 33 34 34 33 33 32 31 30 30 30 29 28 26 25 25 28 32 34 36 37 38 38 39 39 40 42 43
35 36 38 43 46 45 46 47 45 44 44 44 45 46 49 49 49 50 45 43 46 40 37 50 57 56 59 60 55 55 55 51 44 34 29 31 31 27 27 29 32 35 36 35 36 37 40 38 35 37 37 34 33 31 31 32 32 33 33 34 34 34 33 34 34 32 31 31 31 30 29 27 25 26 29 32 35 36 38 38 39 39 40 41 43 44
37 38 40 42 44 46 48 47 46 48 47 47 46 44 43 44 47 50 49 50 52 47 45 55 57 56 62 61 55 56 55 52 49 44 36 29 28 29 31 33 36 38 38 38 39 39 38 36 36 37 37 36 34 33 33 34 34 34 33 34 35 34 33 34 34 34 33 32 32 31 31 30 27 27 29 32 35 36 37 38 39 40 41 42 44 45
37 40 43 42 43 46 49 48 49 51 49 48 47 44 41 41 43 47 49 52 55 57 57 57 56 60 63 59 57 56 53 51 50 47 41 34 34 38 39 37 40 42 42 42 42 40 37 36 37 38 39 37 35 36 36 35 36 36 35 35 35 35 34 34 34 35 35 34 33 33 33 32 31 29 30 31 33 35 37 38 39 41 42 43 44 45
37 40 41 41 39 41 47 50 50 51 50 48 45 41 39 40 42 48 53 54 54 56 56 55 58 64 65 59 57 55 53 53 52 50 49 47 47 48 46 44 45 45 43 42 41 39 36 35 37 39 40 40 39 39 39 39 39 38 37 37 37 36 36 35 34 35 35 35 35 35 34 34 33 33 32 32 33 34 36 38 40 41 42 44 45 46
36 37 40 38 32 36 49 51 47 47 44 41 42 43 44 47 50 54 55 53 52 53 53 55 59 65 66 61 58 56 55 56 55 55 54 52 50 49 48 47 45 42 41 41 41 39 37 36 37 37 39 41 42 43 43 43 42 41 40 39 38 38 37 37 36 35 35 35 36 36 36 35 34 35 35 35 34 35 36 38 41 42 43 44 46 47
36 36 40 38 29 36 50 50 46 40 28 28 45 56 58 61 58 53 52 53 55 56 53 55 60 64 63 61 60 61 60 59 58 55 51 47 46 45 46 47 44 41 42 42 42 40 37 37 37 37 38 40 42 44 44 44 44 43 42 41 39 39 39 39 39 37 37 36 36 37 37 36 36 36 37 38 37 37 37 39 41 42 43 43 44 46
38 37 40 39 31 34 45 46 39 27 17 30 55 64 62 63 58 54 58 63 64 62 59 59 62 61 60 61 63 63 62 61 59 54 48 45 45 46 48 48 45 43 42 41 42 40 38 37 37 36 37 37 38 40 40 40 41 41 41 40 39 40 40 41 41 40 39 38 37 38 38 38 38 37 37 38 39 39 39 39 40 40 41 43 43 45
42 38 39 40 35 35 42 36 19 13 28 50 62 60 58 60 59 60 64 68 67 64 61 61 63 62 63 64 64 64 63 61 58 55 50 47 48 50 48 43 39 39 41 42 42 40 37 37 36 36 37 36 36 37 37 38 39 40 41 41 40 41 42 42 43 42 41 40 39 38 39 39 40 39 38 38 39 40 41 41 40 39 40 42 42 43
47 43 39 41 38 33 30 24 15 19 36 48 52 54 57 58 58 57 57 61 62 60 60 62 63 63 63 62 63 63 61 58 55 53 51 49 49 47 42 38 37 38 41 42 40 38 37 37 37 36 36 37 37 37 37 37 37 38 39 39 40 40 40 40 41 41 41 40 39 39 39 39 40 40 40 39 40 41 41 41 40 40 40 41 41 42
49 48 43 40 37 33 28 27 31 32 32 39 48 53 54 53 52 50 51 55 56 53 56 59 59 59 58 57 57 54 51 51 52 51 50 47 44 39 37 37 37 38 40 40 39 39 38 37 37 36 35 36 35 34 34 33 33 34 35 35 36 36 36 37 37 38 39 39 38 38 38 38 39 40 40 40 40 41 41 40 40 39 40 41 41 41
49 49 47 40 35 36 33 25 21 17 21 39 51 51 50 50 46 40 41 48 51 49 52 56 55 55 53 49 46 42 40 46 50 47 42 37 34 34 35 36 37 38 38 39 38 39 38 36 36 34 33 33 32 31 32 31 32 32 32 33 33 33 33 34 34 35 36 36 36 37 37 37 38 39 40 40 40 41 41 41 40 39 39 40 40 40
49 50 51 46 37 35 32 22 13 13 25 43 49 46 48 49 43 32 28 37 49 49 49 54 54 52 50 46 42 37 35 41 46 41 35 31 31 32 32 33 35 35 35 36 36 36 35 34 33 32 32 31 31 30 31 30 31 32 32 33 34 34 34 34 34 35 35 35 36 37 37 37 37 37 39 40 40 41 41 41 41 40 41 41 40 39
48 50 51 50 44 39 35 28 22 25 36 46 47 45 45 43 36 23 17 30 47 47 44 49 48 44 42 39 38 38 38 39 39 35 32 31 29 27 26 27 29 30 31 32 32 32 32 32 32 31 31 30 30 30 30 30 30 31 32 33 34 34 34 34 34 34 34 34 34 34 34 34 34 34 35 37 38 40 41 42 42 42 41 41 39 38
45 50 52 54 52 48 42 34 29 33 44 50 49 49 48 38 26 22 25 40 50 47 46 48 42 37 34 30 31 35 34 31 30 30 30 28 25 23 24 26 27 28 30 31 31 31 31 30 30 30 29 29 30 30 30 30 30 30 31 31 31 32 32 31 31 31 30 30 29 29 29 29 29 29 30 32 35 36 37 37 37 36 35 35 34 34
41 43 46 52 53 51 49 42 33 34 47 54 52 52 49 37 31 36 47 53 51 49 51 50 43 38 33 28 25 26 25 25 27 30 30 28 26 26 27 28 30 30 30 31 30 30 29 29 29 29 29 29 29 29 29 29 29 29 30 30 30 29 29 28 27 26 26 25 24 24 23 23 23 24 25 27 29 30 30 30 29 29 29 29 30 31
40 40 41 48 51 48 43 34 24 28 45 55 54 53 51 46 45 51 55 53 51 53 53 50 47 43 37 33 30 28 30 32 31 30 31 30 30 31 31 32 32 31 29 29 29 28 28 28 28 28 28 28 28 28 28 28 28 28 28 28 28 27 26 25 24 24 23 22 22 21 20 19 18 18 20 21 23 24 24 25 25 26 26 27 27 28
40 40 39 43 46 42 37 33 33 43 54 56 55 55 54 50 49 49 50 50 50 51 50 51 51 46 42 40 37 35 34 32 29 29 31 32 32 34 34 34 31 28 28 27 27 28 28 28 28 28 28 28 28 27 27 27 26 26 26 25 25 24 24 24 23 22 22 21 21 20 19 18 17 17 18 19 19 20 21 22 22 22 22 22 22 21
36 40 41 43 45 44 44 47 51 56 57 54 51 52 52 51 48 47 49 49 46 46 48 49 48 45 43 41 38 34 30 28 29 31 32 33 34 34 32 31 29 27 27 27 27 27 27 27 27 27 27 26 26 25 24 24 24 23 23 22 22 22 22 22 21 21 20 20 19 19 19 19 19 19 19 19 19 19 19 19 19 18 18 17 17 16
24 27 32 38 41 44 49 52 50 48 49 47 46 46 47 49 50 50 50 49 46 45 46 45 44 44 41 38 35 31 29 30 32 32 32 34 33 31 29 28 27 27 27 26 26 26 25 25 25 25 24 24 22 21 21 21 21 21 21 21 21 20 20 20 20 20 20 20 20 20 21 21 20 20 19 19 19 18 17 17 17 16 16 15 15 14
28 22 22 25 26 28 36 44 46 45 45 43 43 46 49 49 50 50 50 49 47 45 43 42 41 40 38 35 33 31 32 33 33 32 32 32 32 30 29 28 27 27 27 26 25 24 23 23 22 22 22 21 20 20 20 20 20 21 21 21 21 21 21 21 21 21 21 21 21 21 20 20 19 18 17 16 16 15 14 13 13 13 13 12 11 11
43 36 34 33 29 26 26 30 36 41 43 43 45 48 50 50 50 50 49 48 46 44 42 40 38 37 36 35 34 34 34 33 32 31 30 31 32 32 30 29 28 28 26 25 25 24 23 22 21 20 20 20 20 21 22 22 23 22 22 22 22 22 22 21 21 21 20 20 19 18 17 16 15 14 14 13 12 12 11 11 11 10 10 9 9 8
44 43 44 42 39 37 33 26 26 32 37 41 44 45 48 49 48 46 45 45 43 41 39 38 37 38 37 36 36 36 34 33 32 31 30 30 31 30 29 28 27 26 25 25 24 23 23 22 21 21 21 21 22 23 24 24 24 24 24 24 23 23 22 20 20 19 18 17 16 15 14 14 13 12 11 10 10 10 9 9 9 9 8 8 8 8
40 41 43 40 37 39 37 30 27 29 29 30 32 34 39 43 43 40 39 39 38 37 36 37 38 38 37 37 37 36 35 33 31 29 28 28 27 26 26 25 25 25 25 24 23 23 23 22 22 22 22 23 24 25 26 25 25 24 24 23 22 21 20 19 18 17 16 15 14 13 12 12 11 10 9 9 9 8 8 8 8 8 8 8 8 9
39 37 37 36 34 36 36 33 30 30 28 24 24 26 29 32 35 35 34 34 35 36 36 38 40 39 38 37 35 33 31 30 27 25 24 23 23 23 24 24 24 24 23 22 22 22 22 22 23 24 24 25 26 26 26 25 24 23 22 21 20 19 18 17 16 15 14 14 12 11 11 10 9 9 9 8 8 8 8 9 9 9 10 10 9 10
Wind_Direction
229 232 233 234 240 246 247 246 249 254 255 253 255 257 263 268 273 276 276 276 277 277 276 277 279 279 277 275 272 265 264 268 275 280 282 282 281 278 276 273 270 267 265 261 257 255 255 255 255 255 254 254 254 254 253 253 252 252 252 252 251 251 249 249 251 253 254 256 258 260 262 263 262 259 258 257 255 254 252 247 243 245 247 248 248 247
232 235 237 241 244 238 234 236 240 246 248 250 255 260 266 273 279 283 282 280 279 277 277 280 279 277 279 281 278 272 269 272 279 281 283 285 285 283 280 277 274 269 264 260 258 258 257 256 255 255 254 254 255 255 254 253 253 251 251 251 250 250 249 248 249 250 252 253 255 257 258 261 261 259 258 257 256 254 252 248 244 245 249 251 251 251
237 240 238 239 238 229 229 235 239 243 247 252 257 263 268 276 283 285 283 282 280 278 280 282 280 279 282 283 282 281 279 279 281 282 287 290 289 288 285 280 274 268 263 259 257 256 256 255 254 253 254 255 254 254 254 254 254 253 252 251 249 249 249 248 249 249 250 251 253 255 257 258 259 260 258 256 255 253 251 247 243 244 249 253 255 255
236 241 238 235 233 229 230 235 240 245 250 255 259 264 270 278 285 286 284 284 282 281 282 283 283 284 284 284 284 284 282 283 286 287 291 295 296 294 285 277 271 267 263 260 257 255 254 253 253 253 253 254 254 254 254 255 256 255 254 252 250 249 248 248 249 249 250 250 251 253 255 257 258 257 257 255 254 253 251 248 244 243 247 253 257 256
235 237 236 230 226 226 229 233 239 246 252 259 261 264 272 279 282 282 283 285 284 282 283 286 288 287 287 286 285 284 282 286 290 289 293 301 301 294 284 276 271 268 265 261 257 254 253 253 252 253 253 253 255 255 255 254 254 254 253 251 250 248 247 247 248 248 249 250 251 252 253 256 257 256 256 256 255 254 253 250 246 244 247 252 256 255
237 234 230 228 227 227 229 232 236 247 258 262 264 266 273 277 275 277 283 287 287 287 286 289 292 288 287 286 285 286 287 287 287 287 296 302 294 287 284 281 277 271 267 264 260 254 254 256 255 255 255 256 257 257 255 254 253 254 253 252 251 249 247 246 246 247 247 248 250 252 254 255 257 257 257 256 254 252 251 248 244 243 246 251 254 252
238 229 225 229 235 238 240 241 242 253 262 262 265 271 273 273 273 276 280 282 283 285 287 285 281 285 288 286 283 287 288 283 281 286 295 296 289 285 286 286 282 274 268 264 261 257 255 257 257 257 258 258 258 258 257 257 257 256 256 255 254 253 251 248 246 246 246 248 250 252 255 257 258 258 258 256 253 249 246 243 241 241 243 248 249 247
235 228 228 234 240 243 244 247 252 258 261 262 267 272 270 271 274 274 275 273 275 280 282 279 276 281 285 285 287 290 287 282 283 289 293 291 289 287 286 286 282 275 267 263 259 256 253 253 254 255 256 257 258 259 260 261 262 261 260 259 257 256 255 252 249 248 248 249 251 253 255 257 259 259 257 256 253 249 247 242 239 240 242 245 245 243
240 236 238 242 245 248 249 252 257 258 258 261 264 265 265 269 270 269 272 271 277 285 281 274 274 272 275 282 289 289 283 285 291 294 294 291 287 284 283 281 277 271 267 262 256 253 251 253 254 256 258 259 260 261 262 263 263 263 262 262 262 261 260 258 254 251 251 250 251 252 254 256 258 258 257 255 252 249 247 244 240 240 242 243 242 241
244 242 242 245 246 248 251 250 248 246 251 254 254 258 261 265 266 267 270 270 278 282 272 267 269 259 275 282 283 283 284 288 296 297 293 286 279 276 277 275 269 265 264 261 257 256 256 259 261 262 264 264 264 264 264 264 264 264 264 264 265 265 264 262 259 255 254 253 252 253 254 255 257 258 256 254 251 247 245 243 241 241 242 242 240 241
242 242 241 244 247 248 248 245 240 236 239 245 247 250 253 260 264 265 267 269 280 276 263 266 266 244 274 283 280 281 287 292 298 298 280 268 266 270 272 267 263 263 265 266 264 264 264 264 265 265 265 266 266 266 266 267 268 269 269 267 266 265 265 265 263 261 258 257 257 256 256 256 258 258 256 253 251 248 244 242 241 242 243 243 242 241
240 241 242 243 246 247 246 243 240 237 236 241 242 241 243 253 264 267 263 256 241 263 265 267 247 216 231 271 281 286 288 293 297 293 261 256 255 270 271 261 269 275 273 272 270 268 267 267 268 268 268 268 269 271 273 275 275 275 274 273 271 269 265 264 264 263 262 261 260 259 258 258 259 259 257 253 250 247 244 242 241 242 243 244 244 243
241 242 243 245 246 246 245 242 237 236 234 236 236 230 223 228 280 265 247 231 228 249 262 239 200 220 245 267 283 285 285 290 277 255 290 272 232 259 277 271 276 281 278 273 268 268 269 269 271 271 272 273 274 277 278 278 278 278 277 276 275 274 269 265 263 261 261 260 260 259 259 259 259 258 255 251 248 245 243 242 241 241 242 243 244 244
242 245 242 242 243 244 243 240 235 235 233 234 235 227 212 183 105 251 243 307 261 255 258 240 221 245 260 273 285 281 281 278 242 270 301 289 252 259 273 274 276 277 274 268 263 266 268 268 271 272 274 278 279 280 280 281 281 280 280 279 278 276 273 269 265 262 260 259 259 259 259 259 258 256 253 250 248 245 242 241 241 241 241 241 242 242
239 246 244 242 243 245 247 246 245 247 245 245 244 235 229 225 215 223 218 205 258 282 260 215 219 249 261 273 279 271 275 275 276 289 297 290 275 268 264 264 266 265 264 263 261 262 265 268 273 276 279 281 282 283 284 285 286 286 287 285 282 279 276 272 268 264 261 259 259 259 258 257 255 252 250 248 247 245 242 240 240 241 241 241 240 240
236 246 250 247 247 248 250 251 249 245 241 243 240 230 233 237 234 236 241 240 269 337 277 233 246 262 268 272 270 271 276 278 284 288 284 281 284 277 264 254 251 253 256 257 258 259 264 270 275 277 279 282 283 285 285 285 285 286 287 286 285 283 279 275 270 265 260 257 258 260 261 258 252 247 246 246 246 245 243 241 240 240 241 241 240 240
233 246 251 247 246 246 243 242 240 234 230 228 226 225 231 236 235 231 243 260 275 300 269 255 259 268 272 276 275 275 277 278 281 277 269 278 281 277 268 252 247 254 255 253 255 261 269 273 275 277 278 280 281 282 282 282 282 282 283 283 283 282 280 277 273 266 259 256 257 261 263 261 253 246 244 246 245 244 243 240 239 239 240 241 240 240
238 247 253 249 245 243 239 234 230 229 227 223 224 230 233 232 231 225 226 284 256 247 267 255 258 267 270 273 275 274 275 279 280 276 279 279 269 273 275 256 248 250 249 250 256 266 275 276 277 279 279 279 280 280 280 280 282 283 282 281 279 277 277 276 272 267 261 257 256 258 261 262 256 247 243 245 245 244 243 240 239 239 241 241 241 240
240 244 251 250 244 241 237 229 223 223 224 225 229 233 227 219 218 212 202 219 231 208 271 258 259 267 265 265 271 276 279 282 281 279 277 259 250 279 280 259 244 241 241 246 260 272 279 281 282 283 283 283 281 280 281 281 282 283 281 279 277 274 273 272 270 269 266 262 259 258 259 262 260 252 245 244 245 245 243 240 239 239 240 240 241 242
237 237 246 247 241 235 226 221 222 222 218 219 225 228 226 224 218 211 208 213 219 181 232 266 271 267 266 269 275 281 284 284 281 267 231 231 270 280 272 255 240 232 233 243 261 276 280 281 284 287 289 288 286 283 282 282 282 281 279 277 275 272 270 270 269 269 268 266 263 260 259 260 262 258 249 244 245 245 243 240 238 239 240 240 241 242
234 234 241 243 233 223 224 230 234 233 226 221 222 223 225 225 218 220 223 219 216 190 176 230 272 264 267 272 277 281 286 283 263 215 211 273 281 261 252 249 236 223 228 244 261 272 275 280 288 293 291 289 288 287 283 281 279 276 274 273 272 271 270 269 269 268 267 266 263 260 259 258 260 259 252 246 245 245 243 240 238 239 240 241 241 242
233 233 236 236 231 233 238 243 244 242 240 237 236 235 236 231 220 215 226 221 219 220 214 190 247 262 266 271 273 277 282 266 219 223 271 287 266 237 240 248 239 227 230 251 273 278 276 286 299 298 291 287 286 287 283 278 275 272 271 270 270 270 271 270 269 268 266 264 261 260 258 258 258 258 254 248 246 245 242 240 240 240 242 242 242 242
237 234 234 234 238 244 246 245 241 240 241 240 240 243 244 238 225 213 210 221 218 219 231 228 239 259 262 267 270 274 275 260 250 273 286 270 237 238 245 245 235 230 239 265 288 288 279 287 300 295 288 286 286 286 283 277 273 271 270 270 268 268 268 268 268 267 265 262 260 259 258 259 259 258 254 249 247 245 242 240 240 241 243 242 242 242
233 226 229 235 242 246 246 247 245 243 239 235 236 238 237 236 230 222 224 232 220 214 226 221 226 257 260 264 267 269 270 268 272 281 266 223 238 258 256 251 239 232 245 274 288 288 278 282 295 295 291 291 287 284 281 276 273 271 270 270 269 267 266 265 266 265 264 262 260 258 258 259 259 257 254 250 247 245 242 241 241 242 243 243 242 242
230 224 225 227 239 249 246 246 242 238 236 234 237 238 235 236 235 227 226 233 232 230 233 221 227 254 259 263 265 267 270 271 271 268 247 233 256 264 254 251 246 240 253 273 284 286 278 283 296 298 295 292 286 281 278 274 273 270 269 270 268 267 265 264 263 262 262 261 259 258 258 258 258 256 253 250 248 245 243 243 243 244 244 243 243 242
239 234 229 218 210 225 229 230 234 236 235 234 237 239 238 237 234 230 228 225 229 241 239 229 239 255 260 262 263 266 269 270 269 264 255 250 265 267 252 242 245 254 265 276 281 280 280 290 300 298 294 290 283 278 273 270 270 269 268 268 267 266 264 262 261 260 260 260 259 257 256 256 256 256 253 251 249 247 245 245 246 247 246 245 244 243
239 237 236 231 229 234 239 244 248 246 238 236 241 243 241 239 236 234 228 222 232 242 241 240 247 256 261 261 262 265 267 269 271 266 259 261 268 266 249 242 253 267 275 279 279 280 286 295 299 295 293 289 281 274 269 267 267 266 267 268 266 265 263 261 260 258 257 258 257 256 254 253 254 254 253 251 250 249 248 248 248 248 248 246 245 244
236 233 236 239 241 246 252 255 257 255 250 249 251 248 244 242 237 231 226 232 240 239 241 251 251 252 260 263 264 265 266 268 270 266 263 269 270 257 242 248 265 276 279 279 281 289 294 294 291 290 289 286 280 273 268 267 266 265 265 266 267 268 266 263 261 258 257 257 256 256 254 252 252 252 252 252 251 251 251 251 251 250 249 248 247 245
238 237 239 241 244 249 253 255 255 254 255 256 255 253 250 246 240 234 234 244 246 235 241 257 256 254 261 267 267 267 267 267 269 271 269 261 255 253 252 260 273 279 280 280 286 295 294 287 283 284 283 281 278 273 270 269 267 266 266 266 267 269 269 268 265 262 260 258 257 257 254 252 250 251 252 253 254 255 255 255 254 253 251 249 247 246
239 240 243 242 244 248 250 252 253 252 253 253 252 252 253 251 250 249 251 256 253 245 248 258 261 261 264 268 268 268 268 268 268 271 269 255 251 262 268 269 275 280 280 281 289 294 290 282 278 277 278 278 274 271 270 268 267 267 266 267 268 269 271 271 270 267 264 261 259 258 256 254 252 251 253 256 257 258 258 258 257 255 253 250 248 247
237 238 242 242 243 246 247 248 250 250 250 250 250 251 252 251 253 253 254 255 252 249 251 254 258 262 263 264 265 265 265 266 266 268 269 265 265 271 274 275 280 284 283 283 288 290 286 280 275 271 271 272 271 270 269 269 269 268 268 268 269 270 272 273 272 271 268 265 263 260 259 258 255 253 253 255 257 259 260 260 259 257 254 251 248 246
237 237 240 240 241 244 245 245 246 250 252 253 252 252 251 249 249 248 250 252 250 250 253 251 251 257 261 262 263 264 264 266 268 271 272 272 273 276 278 281 284 284 283 285 289 287 281 277 275 270 265 264 265 267 268 269 271 271 271 271 271 272 274 275 275 274 272 269 267 264 262 260 258 256 254 254 255 258 260 260 259 258 256 253 249 247
240 239 240 239 238 244 246 245 247 251 256 253 248 247 247 249 250 251 251 254 255 254 253 250 250 256 261 265 267 268 269 270 272 275 275 276 278 278 279 282 282 281 284 287 287 283 277 275 275 272 266 262 261 263 266 269 271 273 274 273 273 275 277 277 277 276 274 272 270 267 265 262 260 258 256 255 255 256 258 260 261 261 260 257 253 250
247 243 242 241 237 242 248 249 248 248 246 246 247 247 247 248 250 251 252 254 256 256 254 255 258 261 262 264 267 269 271 275 278 279 280 279 278 278 279 281 281 282 285 285 283 280 278 274 272 270 269 266 264 264 266 269 271 272 271 271 273 275 276 277 277 276 275 273 271 269 267 264 262 260 258 258 257 257 258 260 262 262 261 259 255 252
252 246 242 240 236 240 247 247 243 238 244 249 252 251 251 251 252 253 256 258 258 257 257 258 260 262 263 263 265 269 273 277 281 281 279 277 277 279 280 279 278 281 283 281 280 278 275 272 272 272 272 270 269 267 267 268 268 267 266 267 268 271 272 273 274 274 274 273 272 270 268 266 264 262 261 260 260 259 259 260 261 260 259 258 256 252
253 251 245 239 235 236 238 232 229 244 249 252 256 256 254 252 251 251 253 257 258 256 256 258 260 263 265 265 267 271 274 277 279 278 275 274 276 280 279 275 275 279 280 279 278 275 272 273 274 274 273 271 271 270 269 269 268 266 266 266 267 268 270 270 270 271 272 273 273 271 269 268 266 265 263 262 261 261 261 260 260 259 257 256 254 251
250 250 246 238 234 233 229 229 240 249 255 257 257 258 255 252 251 249 250 257 263 260 258 260 263 266 267 268 270 273 276 277 276 273 271 273 275 275 272 271 273 277 277 276 274 272 272 273 273 272 272 272 272 271 271 271 270 270 269 269 269 269 269 269 270 270 270 271 272 271 270 269 268 267 266 264 262 262 261 259 258 256 255 253 251 249
246 246 245 239 234 234 233 236 243 244 251 256 257 259 259 258 259 256 252 259 266 264 260 261 262 264 266 269 271 274 275 273 271 268 269 272 271 266 266 269 273 274 272 271 270 271 272 272 272 272 272 272 272 272 273 272 272 272 271 271 271 271 270 270 270 269 270 271 271 271 271 271 271 270 268 266 264 262 260 258 256 253 251 249 247 245
244 244 244 240 236 233 229 229 232 226 241 254 262 265 263 262 262 256 247 256 262 262 263 264 264 266 268 270 271 270 266 264 264 269 274 275 270 268 269 270 270 268 266 265 266 268 268 269 270 271 271 272 273 273 273 273 273 272 272 272 271 271 271 271 270 270 271 271 271 272 272 273 273 272 270 268 266 263 260 257 253 250 247 244 243 243
237 237 236 233 233 233 231 232 236 235 242 254 264 265 262 265 264 245 227 254 263 266 270 270 269 272 275 274 270 263 257 258 265 274 278 275 272 271 267 264 262 262 261 262 262 263 265 266 268 269 270 271 272 273 273 273 273 273 272 272 272 271 271 271 271 271 270 271 271 272 272 272 272 271 271 270 267 265 261 256 252 249 246 246 247 248
230 230 229 229 231 232 232 234 238 240 245 253 258 259 261 264 251 223 235 261 269 272 276 276 275 277 279 278 270 261 258 261 269 274 274 270 267 263 257 257 258 259 260 261 262 262 263 264 265 266 267 269 270 272 272 273 273 272 272 272 272 272 272 272 272 271 271 271 272 271 272 272 271 270 269 267 265 262 259 256 254 252 251 251 252 253
223 225 225 227 229 231 232 234 239 242 246 251 255 256 255 247 233 240 259 269 272 274 276 277 278 279 281 281 271 262 262 266 269 270 268 263 260 259 260 261 263 263 263 262 261 260 261 262 265 268 270 271 272 272 272 271 271 270 270 270 271 271 271 271 271 271 271 271 272 273 274 275 274 272 268 264 261 258 255 254 254 254 254 254 255 255
228 224 220 222 226 229 231 231 233 239 247 253 253 247 243 243 250 260 267 270 272 275 277 277 277 278 279 277 270 267 271 273 270 266 262 259 260 263 266 266 265 263 260 257 256 258 261 264 269 272 273 274 273 272 272 271 270 269 269 269 269 270 271 271 271 271 272 274 276 279 281 282 281 278 272 266 262 259 258 258 258 258 258 258 257 255
236 229 225 225 225 223 223 227 236 245 249 253 252 248 249 257 266 269 269 270 274 277 278 278 277 277 276 275 274 273 272 269 263 258 257 260 264 266 265 263 260 256 253 253 256 260 264 269 272 273 274 273 272 271 271 270 270 270 269 269 269 270 272 273 275 276 279 281 283 284 285 284 283 281 277 271 266 263 261 259 257 256 254 253 251 251
239 240 241 239 235 232 233 238 243 247 248 249 253 257 259 263 267 267 267 270 273 274 275 276 276 275 274 274 274 271 263 256 255 256 259 262 263 261 258 255 252 252 254 258 262 265 269 272 273 272 272 272 272 271 270 270 271 271 271 271 273 275 277 278 279 280 282 284 284 285 284 283 281 279 277 273 268 264 260 258 257 256 256 258 262 267
242 243 248 247 244 244 246 245 244 244 246 251 257 261 260 261 263 264 265 266 267 269 271 272 272 272 271 269 267 262 255 252 255 257 258 259 257 253 250 249 251 256 260 263 267 269 271 271 271 271 271 272 274 274 275 274 274 273 274 275 278 281 283 283 282 283 283 284 284 283 282 281 280 278 276 273 271 269 267 267 269 271 275 280 285 289
262 259 264 266 262 255 252 252 251 251 253 257 260 260 261 261 262 262 263 264 265 267 268 268 268 268 265 260 256 253 251 252 254 254 253 251 249 248 249 252 256 260 264 267 269 271 271 270 270 271 273 275 278 280 282 281 279 277 277 278 280 284 285 285 286 285 283 282 281 280 278 277 277 275 273 272 271 272 275 280 285 290 295 299 302 304
273 274 276 279 280 275 266 258 254 252 253 256 257 258 259 259 258 259 260 261 263 264 264 265 264 261 257 253 251 250 250 250 248 247 245 243 245 248 251 255 259 262 265 269 270 271 272 271 271 272 275 277 279 281 283 282 281 280 280 280 281 284 285 285 285 283 281 279 277 275 274 272 271 270 271 272 275 281 289 296 301 306 308 309 310 306
275 275 276 277 280 282 282 274 260 253 250 250 252 255 255 254 254 255 255 257 259 260 259 257 256 254 251 249 248 247 246 243 242 242 242 242 244 247 251 255 259 263 266 269 269 269 269 270 271 274 276 278 278 279 279 279 278 279 280 280 281 282 283 284 283 281 279 275 273 271 270 269 271 274 278 285 293 299 304 306 306 307 305 301 298 293
273 275 276 278 278 280 284 287 283 277 268 257 254 255 256 255 253 252 251 253 253 251 247 244 244 245 246 245 244 243 241 240 240 239 239 239 242 246 251 256 260 264 266 267 266 266 267 268 270 272 274 275 276 275 275 275 276 277 278 278 279 280 280 279 277 275 273 270 269 270 272 275 281 287 292 299 302 302 301 298 294 291 286 280 276 275
272 275 277 278 277 278 281 286 288 289 286 276 267 262 259 257 257 254 249 245 241 239 238 237 238 239 241 242 243 243 242 241 240 239 240 243 247 253 257 261 264 266 267 266 265 266 266 267 268 269 270 271 272 272 273 274 275 276 276 277 277 277 276 274 273 272 272 273 274 276 279 284 289 291 294 294 291 288 283 277 272 270 267 264 263 264
Height
3167 3168 3168 3170 3171 3173 3173 3174 3174 3174 3175 3176 3176 3177 3177 3177 3177 3178 3178 3178 3178 3176 3175 3175 3173 3171 3171 3173 3175 3175 3174 3172 3172 3173 3172 3173 3172 3172 3172 3171 3172 3172 3173 3174 3173 3173 3172 3171 3171 3171 3171 3171 3172 3172 3173 3173 3174 3174 3174 3175 3175 3176 3177 3177 3177 3178 3178 3178 3179 3179 3179 3179 3180 3180 3180 3180 3181 3181 3182 3182 3183 3183 3184 3184 3184 3185
3165 3166 3167 3169 3170 3171 3171 3171 3171 3172 3173 3174 3174 3175 3175 3176 3176 3176 3176 3176 3176 3174 3172 3172 3170 3168 3168 3170 3171 3172 3170 3170 3171 3170 3169 3169 3169 3168 3168 3168 3168 3168 3169 3169 3169 3169 3168 3168 3167 3167 3167 3167 3168 3169 3169 3169 3170 3170 3170 3171 3172 3172 3173 3174 3174 3174 3175 3175 3175 3176 3176 3176 3176 3177 3177 3177 3177 3178 3179 3179 3181 3181 3181 3182 3182 3182
3163 3164 3166 3167 3167 3168 3169 3169 3169 3170 3171 3172 3173 3174 3174 3174 3174 3174 3174 3173 3173 3171 3169 3169 3167 3164 3166 3167 3167 3168 3167 3166 3167 3167 3166 3166 3165 3165 3165 3164 3164 3164 3164 3164 3165 3164 3164 3163 3163 3162 3162 3163 3164 3164 3164 3165 3166 3166 3167 3167 3168 3168 3169 3170 3170 3170 3171 3171 3172 3172 3173 3173 3173 3173 3173 3174 3174 3174 3175 3176 3178 3179 3179 3179 3180 3180
3161 3163 3164 3164 3165 3166 3166 3167 3168 3168 3169 3171 3171 3172 3172 3173 3173 3173 3172 3172 3171 3169 3167 3166 3163 3161 3162 3163 3164 3165 3163 3163 3164 3163 3163 3162 3162 3161 3161 3160 3159 3159 3160 3160 3160 3160 3159 3159 3158 3158 3159 3159 3159 3159 3160 3161 3162 3162 3163 3163 3164 3165 3165 3166 3166 3167 3167 3168 3168 3169 3169 3169 3169 3170 3170 3170 3170 3171 3172 3173 3174 3175 3176 3176 3177 3177
3159 3161 3162 3162 3163 3163 3164 3165 3166 3167 3168 3169 3169 3170 3171 3172 3172 3171 3171 3170 3168 3167 3166 3164 3160 3156 3158 3160 3160 3161 3160 3160 3161 3160 3160 3160 3158 3157 3156 3156 3155 3155 3155 3155 3155 3155 3154 3154 3154 3154 3154 3154 3155 3155 3156 3157 3157 3158 3158 3159 3159 3160 3161 3161 3162 3163 3163 3164 3164 3165 3165 3165 3166 3166 3166 3167 3167 3168 3168 3169 3170 3171 3172 3173 3174 3174
3157 3159 3159 3160 3161 3161 3162 3163 3164 3165 3166 3167 3167 3168 3169 3170 3170 3169 3169 3168 3166 3164 3163 3163 3160 3154 3154 3156 3156 3157 3157 3158 3158 3157 3157 3157 3155 3153 3152 3152 3152 3151 3151 3151 3151 3151 3150 3151 3151 3150 3151 3151 3151 3152 3152 3153 3153 3153 3154 3154 3154 3155 3156 3157 3158 3159 3159 3160 3160 3161 3161 3162 3162 3162 3163 3163 3164 3164 3164 3165 3166 3167 3168 3169 3170 3171
3153 3156 3157 3158 3158 3159 3160 3161 3163 3164 3164 3164 3164 3166 3168 3168 3168 3168 3168 3167 3164 3162 3161 3161 3161 3155 3150 3152 3153 3153 3154 3154 3155 3155 3154 3154 3152 3150 3149 3149 3148 3147 3147 3147 3147 3147 3148 3148 3148 3148 3148 3148 3148 3148 3148 3149 3149 3150 3150 3150 3151 3151 3152 3153 3153 3154 3155 3155 3156 3157 3157 3157 3158 3158 3159 3159 3160 3160 3160 3161 3162 3163 3164 3165 3166 3167
3151 3154 3155 3156 3156 3156 3157 3159 3161 3162 3162 3162 3162 3165 3165 3166 3167 3166 3166 3166 3163 3161 3158 3158 3161 3157 3147 3145 3149 3150 3150 3150 3151 3153 3152 3151 3150 3148 3147 3146 3145 3145 3144 3145 3145 3145 3145 3145 3145 3145 3144 3145 3145 3145 3145 3146 3146 3146 3147 3147 3147 3147 3148 3149 3150 3150 3151 3151 3152 3152 3152 3153 3153 3154 3155 3155 3155 3156 3156 3157 3158 3159 3160 3161 3162 3163
3149 3152 3153 3153 3154 3153 3155 3158 3159 3160 3160 3159 3161 3162 3163 3164 3165 3165 3165 3164 3163 3160 3155 3153 3160 3158 3144 3138 3145 3145 3145 3147 3148 3149 3149 3148 3147 3145 3144 3144 3143 3143 3143 3143 3143 3142 3142 3142 3142 3142 3142 3142 3142 3142 3142 3142 3142 3142 3143 3143 3143 3144 3144 3145 3146 3146 3147 3147 3147 3148 3148 3149 3149 3150 3151 3151 3151 3152 3153 3153 3155 3156 3157 3158 3159 3159
3147 3148 3150 3151 3150 3151 3153 3156 3156 3157 3157 3157 3159 3160 3161 3163 3162 3163 3163 3162 3163 3158 3150 3151 3158 3158 3141 3132 3140 3141 3139 3143 3145 3146 3146 3144 3144 3143 3142 3142 3141 3141 3141 3141 3141 3140 3140 3140 3139 3139 3139 3139 3139 3139 3139 3139 3139 3139 3139 3139 3139 3140 3140 3141 3141 3142 3142 3143 3143 3143 3144 3145 3145 3146 3147 3147 3147 3148 3149 3150 3151 3153 3154 3155 3155 3156
3143 3145 3147 3147 3147 3149 3151 3152 3153 3154 3155 3155 3157 3158 3160 3161 3160 3162 3160 3160 3163 3154 3147 3149 3154 3157 3143 3127 3133 3137 3136 3139 3141 3142 3143 3141 3140 3140 3139 3139 3139 3139 3139 3138 3138 3137 3137 3137 3136 3136 3136 3136 3136 3136 3136 3136 3136 3136 3135 3135 3135 3136 3137 3137 3138 3138 3138 3139 3139 3139 3140 3140 3141 3141 3142 3143 3144 3145 3146 3147 3148 3149 3150 3152 3153 3153
3139 3141 3143 3143 3145 3146 3147 3149 3150 3152 3152 3153 3155 3156 3159 3160 3159 3160 3157 3159 3160 3150 3145 3147 3150 3155 3142 3124 3128 3135 3133 3136 3137 3138 3139 3138 3138 3138 3138 3137 3137 3137 3136 3136 3135 3134 3134 3134 3133 3133 3133 3133 3133 3133 3133 3133 3133 3132 3132 3132 3132 3132 3133 3133 3134 3134 3134 3135 3135 3135 3136 3136 3136 3137 3138 3139 3140 3141 3142 3143 3144 3146 3147 3148 3150 3150
3135 3136 3139 3140 3141 3142 3144 3146 3147 3149 3150 3151 3153 3155 3157 3159 3159 3157 3155 3156 3155 3147 3144 3147 3149 3148 3133 3122 3127 3131 3130 3133 3134 3135 3136 3135 3136 3136 3136 3135 3134 3133 3133 3133 3132 3131 3131 3131 3131 3131 3130 3130 3130 3130 3130 3130 3130 3129 3129 3129 3129 3129 3129 3129 3129 3130 3130 3130 3131 3131 3132 3132 3132 3133 3134 3135 3136 3137 3138 3139 3141 3142 3143 3145 3146 3147
3132 3132 3134 3135 3135 3137 3139 3140 3142 3144 3146 3148 3149 3151 3153 3157 3158 3155 3154 3154 3149 3144 3143 3145 3148 3139 3125 3121 3125 3126 3128 3130 3130 3132 3133 3132 3133 3133 3133 3132 3131 3130 3130 3130 3129 3128 3128 3128 3128 3128 3127 3127 3127 3127 3127 3126 3126 3126 3125 3125 3125 3125 3125 3125 3125 3126 3126 3127 3127 3128 3128 3128 3128 3129 3130 3131 3132 3133 3134 3135 3137 3139 3140 3141 3142 3143
3129 3127 3127 3129 3131 3132 3134 3136 3138 3141 3144 3145 3146 3148 3148 3148 3149 3147 3149 3148 3143 3141 3142 3143 3142 3130 3120 3120 3121 3121 3125 3127 3127 3129 3129 3129 3130 3130 3129 3129 3128 3128 3128 3127 3126 3126 3125 3125 3125 3125 3125 3124 3124 3124 3123 3123 3123 3122 3122 3122 3122 3122 3122 3122 3122 3122 3122 3123 3123 3124 3124 3124 3124 3125 3126 3127 3128 3129 3130 3132 3133 3135 3136 3137 3138 3139
3125 3121 3122 3126 3127 3129 3131 3133 3136 3138 3141 3142 3143 3144 3141 3139 3141 3143 3144 3142 3141 3142 3140 3137 3131 3120 3116 3116 3116 3119 3121 3122 3124 3125 3125 3127 3127 3127 3126 3125 3125 3125 3125 3124 3123 3123 3123 3123 3123 3122 3122 3122 3121 3121 3120 3120 3119 3119 3118 3118 3118 3118 3118 3118 3118 3118 3118 3119 3119 3119 3120 3120 3120 3121 3122 3123 3124 3125 3127 3128 3129 3131 3132 3133 3134 3135
3121 3118 3120 3123 3124 3126 3128 3130 3132 3133 3135 3137 3136 3135 3134 3135 3138 3141 3141 3140 3142 3142 3135 3129 3123 3115 3114 3111 3110 3115 3116 3117 3121 3121 3122 3124 3123 3124 3124 3123 3123 3122 3122 3121 3121 3121 3121 3120 3120 3120 3119 3119 3118 3118 3117 3117 3116 3115 3115 3115 3114 3114 3114 3114 3114 3114 3115 3115 3115 3116 3116 3116 3116 3117 3118 3120 3121 3122 3122 3124 3125 3127 3128 3129 3130 3131
3118 3117 3117 3119 3120 3122 3125 3126 3127 3129 3130 3130 3129 3129 3131 3135 3137 3138 3140 3140 3142 3141 3131 3122 3117 3114 3113 3108 3105 3110 3112 3114 3117 3117 3118 3120 3120 3121 3122 3121 3120 3119 3119 3119 3118 3119 3118 3118 3117 3117 3116 3116 3115 3115 3114 3113 3113 3112 3112 3111 3111 3111 3111 3111 3111 3111 3111 3111 3112 3112 3112 3112 3113 3113 3114 3115 3116 3117 3118 3120 3121 3123 3124 3125 3126 3126
3115 3115 3114 3116 3117 3119 3121 3123 3123 3124 3125 3125 3125 3127 3129 3132 3132 3134 3136 3135 3136 3137 3128 3118 3113 3111 3108 3103 3103 3107 3109 3110 3113 3114 3114 3116 3117 3118 3118 3117 3116 3116 3116 3116 3116 3116 3115 3115 3115 3114 3113 3113 3112 3112 3111 3110 3110 3109 3109 3108 3108 3107 3107 3107 3107 3107 3107 3107 3108 3108 3108 3109 3109 3109 3110 3111 3112 3113 3114 3116 3117 3119 3120 3121 3122 3123
3112 3113 3112 3112 3114 3116 3117 3117 3116 3116 3118 3121 3123 3125 3126 3127 3127 3127 3128 3126 3126 3128 3124 3117 3111 3105 3100 3099 3101 3104 3105 3107 3108 3109 3111 3113 3115 3115 3114 3113 3112 3113 3114 3114 3114 3114 3113 3113 3112 3111 3111 3110 3110 3109 3108 3108 3107 3106 3106 3105 3104 3104 3104 3104 3104 3104 3104 3104 3104 3104 3104 3105 3105 3106 3106 3107 3108 3109 3110 3112 3113 3114 3115 3116 3118 3119
3110 3110 3109 3109 3110 3111 3111 3110 3109 3110 3113 3116 3118 3120 3120 3121 3123 3122 3121 3120 3119 3121 3121 3118 3111 3100 3096 3099 3099 3100 3102 3103 3105 3106 3107 3110 3111 3111 3110 3109 3109 3110 3111 3112 3112 3111 3111 3110 3109 3109 3109 3108 3107 3106 3105 3105 3104 3103 3102 3101 3101 3101 3101 3101 3100 3100 3100 3100 3100 3100 3100 3101 3101 3102 3102 3103 3104 3105 3106 3108 3109 3110 3111 3112 3114 3114
3106 3105 3105 3105 3104 3104 3104 3104 3106 3108 3109 3111 3112 3112 3113 3113 3115 3116 3115 3114 3114 3115 3115 3115 3110 3098 3094 3097 3096 3096 3099 3100 3102 3103 3104 3106 3108 3108 3108 3107 3107 3108 3108 3109 3109 3108 3108 3107 3106 3106 3105 3105 3104 3103 3102 3101 3100 3099 3098 3098 3098 3098 3097 3097 3097 3096 3096 3096 3096 3096 3096 3097 3097 3097 3098 3099 3100 3101 3103 3104 3105 3106 3107 3108 3109 3110
3101 3101 3101 3100 3099 3099 3100 3102 3104 3105 3107 3108 3108 3107 3107 3106 3106 3107 3107 3107 3109 3111 3109 3111 3107 3095 3091 3095 3094 3093 3096 3097 3098 3100 3101 3103 3103 3105 3106 3105 3105 3105 3105 3105 3104 3104 3104 3103 3103 3102 3101 3101 3100 3100 3099 3098 3096 3096 3095 3095 3094 3094 3094 3094 3093 3093 3092 3092 3092 3092 3092 3093 3093 3093 3094 3095 3096 3098 3099 3100 3101 3102 3103 3104 3105 3105
3098 3097 3097 3097 3096 3097 3098 3099 3101 3102 3103 3102 3100 3100 3101 3100 3101 3103 3104 3104 3105 3105 3105 3108 3103 3090 3088 3092 3091 3089 3091 3093 3095 3097 3099 3100 3101 3102 3102 3102 3103 3102 3101 3101 3101 3101 3101 3100 3099 3098 3097 3097 3096 3096 3095 3093 3093 3092 3091 3091 3091 3091 3091 3090 3090 3089 3089 3088 3088 3088 3089 3089 3089 3089 3090 3091 3092 3094 3095 3096 3097 3097 3098 3099 3100 3101
3092 3092 3093 3095 3096 3095 3095 3096 3096 3095 3095 3093 3092 3094 3095 3096 3099 3101 3102 3103 3102 3100 3099 3100 3093 3084 3084 3088 3087 3086 3087 3089 3091 3094 3096 3098 3098 3099 3098 3097 3098 3099 3099 3099 3098 3098 3097 3096 3096 3094 3093 3092 3092 3091 3090 3089 3088 3088 3087 3087 3087 3087 3087 3086 3086 3085 3085 3085 3084 3085 3085 3085 3085 3085 3086 3088 3089 3090 3091 3092 3092 3093 3094 3095 3096 3096
3085 3084 3085 3087 3088 3088 3086 3084 3083 3084 3085 3086 3087 3089 3091 3093 3094 3095 3097 3099 3097 3094 3092 3089 3084 3079 3081 3083 3082 3083 3084 3085 3087 3090 3092 3094 3095 3095 3095 3095 3095 3096 3096 3096 3095 3094 3093 3092 3091 3090 3088 3087 3087 3086 3085 3084 3084 3083 3083 3083 3082 3082 3082 3082 3082 3081 3081 3081 3081 3081 3081 3081 3081 3082 3083 3084 3085 3086 3087 3087 3088 3089 3090 3091 3092 3092
3080 3078 3078 3078 3077 3076 3075 3074 3076 3078 3079 3080 3081 3082 3084 3086 3087 3090 3093 3092 3089 3088 3084 3080 3080 3077 3075 3077 3079 3080 3081 3081 3083 3085 3087 3089 3091 3091 3091 3092 3092 3092 3093 3092 3091 3090 3089 3088 3087 3085 3083 3082 3082 3081 3080 3079 3078 3078 3078 3078 3077 3077 3077 3077 3077 3077 3077 3077 3077 3077 3077 3077 3077 3078 3079 3080 3080 3081 3082 3083 3084 3085 3086 3087 3087 3088
3075 3073 3074 3073 3071 3072 3072 3073 3075 3075 3074 3075 3076 3077 3078 3080 3082 3084 3083 3082 3084 3084 3075 3072 3077 3073 3067 3071 3076 3077 3078 3079 3080 3082 3083 3084 3086 3087 3088 3088 3088 3088 3088 3087 3087 3086 3085 3083 3082 3080 3079 3078 3076 3075 3074 3074 3073 3073 3073 3073 3072 3072 3072 3072 3072 3073 3073 3073 3073 3073 3073 3073 3073 3074 3075 3075 3076 3077 3077 3079 3080 3080 3081 3082 3082 3083
3071 3069 3070 3071 3069 3069 3070 3071 3071 3070 3069 3070 3071 3072 3074 3075 3075 3075 3075 3076 3077 3072 3065 3067 3073 3067 3061 3066 3071 3073 3075 3077 3077 3078 3080 3081 3082 3083 3084 3083 3083 3083 3083 3082 3082 3081 3080 3079 3077 3075 3074 3072 3071 3070 3070 3069 3068 3068 3068 3068 3067 3067 3067 3067 3067 3068 3068 3068 3069 3069 3069 3069 3069 3070 3070 3071 3071 3072 3073 3075 3076 3076 3077 3077 3078 3079
3066 3064 3066 3067 3066 3065 3066 3067 3067 3066 3065 3065 3065 3067 3069 3070 3070 3069 3069 3068 3066 3062 3062 3067 3067 3059 3056 3060 3065 3068 3071 3073 3073 3073 3075 3077 3077 3077 3078 3078 3077 3077 3078 3077 3077 3076 3075 3074 3072 3070 3068 3067 3067 3065 3064 3064 3063 3063 3062 3062 3062 3062 3062 3062 3062 3063 3063 3064 3065 3065 3065 3065 3065 3065 3066 3066 3067 3068 3069 3070 3071 3071 3072 3073 3073 3074
3061 3060 3062 3063 3062 3060 3061 3061 3062 3061 3061 3061 3061 3063 3065 3065 3064 3062 3059 3059 3060 3059 3061 3065 3060 3051 3048 3055 3060 3063 3064 3066 3067 3068 3069 3071 3072 3072 3072 3071 3072 3072 3072 3072 3072 3071 3070 3068 3067 3065 3063 3062 3062 3060 3059 3059 3058 3057 3058 3058 3058 3058 3057 3057 3058 3058 3058 3059 3060 3060 3060 3061 3062 3062 3062 3062 3063 3064 3065 3065 3065 3066 3067 3067 3068 3069
3057 3057 3058 3059 3058 3055 3055 3055 3056 3057 3057 3056 3056 3057 3058 3056 3052 3050 3051 3054 3056 3055 3056 3059 3053 3043 3041 3049 3054 3056 3058 3059 3060 3062 3064 3065 3066 3066 3065 3065 3066 3067 3066 3066 3066 3065 3063 3062 3060 3060 3059 3058 3057 3055 3054 3054 3053 3053 3053 3053 3053 3053 3053 3053 3053 3053 3054 3054 3055 3055 3056 3057 3057 3058 3057 3057 3058 3058 3059 3060 3060 3060 3061 3062 3063 3064
3052 3053 3053 3055 3053 3049 3049 3050 3052 3054 3053 3049 3047 3047 3046 3044 3044 3047 3049 3050 3049 3049 3050 3049 3043 3039 3043 3047 3048 3048 3051 3052 3054 3056 3059 3060 3061 3061 3059 3059 3059 3060 3060 3060 3059 3058 3057 3055 3054 3053 3053 3053 3052 3051 3050 3050 3049 3049 3049 3049 3049 3049 3049 3049 3049 3049 3049 3049 3050 3050 3051 3052 3052 3053 3053 3053 3053 3053 3054 3054 3055 3056 3057 3058 3059 3060
3047 3048 3048 3049 3048 3045 3044 3047 3049 3048 3043 3036 3036 3038 3038 3040 3043 3044 3042 3040 3040 3042 3042 3041 3040 3041 3043 3043 3041 3041 3043 3045 3048 3051 3053 3054 3054 3054 3053 3053 3053 3053 3054 3053 3052 3051 3050 3049 3049 3047 3047 3047 3047 3047 3047 3046 3046 3046 3045 3045 3045 3045 3044 3044 3044 3044 3044 3044 3045 3045 3046 3047 3047 3048 3048 3049 3049 3049 3049 3049 3050 3051 3051 3052 3053 3055
3041 3042 3042 3043 3042 3040 3041 3044 3043 3036 3029 3026 3029 3033 3036 3038 3039 3037 3033 3032 3034 3036 3037 3038 3037 3035 3034 3035 3037 3038 3039 3041 3042 3043 3044 3046 3046 3046 3046 3046 3047 3047 3046 3045 3044 3044 3044 3043 3043 3042 3041 3041 3041 3041 3042 3042 3041 3041 3041 3041 3041 3040 3040 3039 3039 3039 3039 3039 3039 3040 3040 3041 3041 3042 3043 3044 3044 3044 3044 3044 3045 3045 3045 3046 3047 3049
3035 3036 3036 3036 3036 3036 3037 3036 3030 3023 3021 3024 3026 3027 3029 3030 3029 3029 3027 3025 3027 3030 3032 3031 3029 3025 3025 3029 3033 3035 3036 3038 3037 3034 3035 3038 3040 3040 3040 3040 3041 3040 3039 3038 3038 3038 3038 3038 3037 3037 3036 3036 3036 3036 3036 3036 3036 3035 3035 3036 3036 3035 3035 3035 3034 3034 3034 3034 3034 3035 3035 3035 3036 3036 3037 3038 3038 3038 3038 3039 3039 3039 3039 3040 3041 3042
3029 3030 3031 3030 3029 3029 3028 3025 3021 3020 3020 3020 3018 3017 3018 3019 3021 3024 3023 3019 3021 3025 3026 3023 3020 3018 3019 3024 3029 3032 3033 3033 3029 3025 3026 3031 3034 3035 3035 3034 3034 3034 3033 3032 3032 3032 3033 3032 3032 3032 3031 3031 3031 3030 3030 3030 3030 3030 3030 3030 3030 3030 3030 3030 3029 3029 3029 3029 3029 3029 3030 3030 3030 3031 3031 3032 3032 3032 3033 3033 3033 3033 3034 3035 3035 3036
3023 3024 3025 3024 3021 3021 3022 3019 3018 3018 3015 3012 3010 3009 3012 3015 3019 3022 3022 3017 3015 3016 3016 3015 3013 3012 3015 3021 3026 3028 3029 3027 3020 3015 3020 3027 3029 3029 3029 3028 3027 3027 3027 3027 3027 3027 3027 3027 3027 3027 3026 3026 3026 3025 3025 3025 3025 3025 3025 3025 3025 3025 3024 3024 3024 3024 3025 3025 3024 3024 3025 3025 3025 3025 3026 3026 3026 3027 3027 3027 3028 3028 3029 3029 3030 3030
3016 3017 3020 3019 3016 3016 3016 3013 3011 3009 3006 3005 3006 3007 3011 3013 3015 3019 3020 3012 3005 3005 3007 3008 3008 3009 3014 3018 3020 3022 3022 3018 3011 3010 3016 3022 3022 3022 3023 3022 3021 3021 3022 3022 3022 3022 3022 3022 3022 3022 3022 3021 3021 3021 3021 3020 3020 3020 3020 3020 3020 3020 3020 3020 3020 3020 3020 3020 3019 3019 3019 3019 3020 3020 3020 3020 3021 3021 3022 3022 3022 3022 3022 3023 3023 3025
3008 3010 3012 3010 3008 3010 3009 3005 3003 3001 3000 3002 3005 3005 3007 3009 3011 3015 3013 3003 2997 2998 3001 3003 3004 3008 3010 3012 3013 3014 3012 3009 3008 3009 3013 3015 3015 3016 3017 3016 3016 3016 3016 3017 3017 3017 3017 3017 3017 3017 3017 3017 3016 3016 3016 3015 3015 3015 3015 3015 3015 3014 3014 3015 3015 3015 3015 3014 3014 3014 3014 3014 3014 3014 3015 3015 3015 3016 3016 3016 3016 3017 3017 3018 3019 3021
3000 3001 3002 3000 3001 3003 3002 2998 2996 2993 2993 2999 3003 3002 3003 3005 3005 3003 2998 2993 2993 2995 2996 2997 3000 3003 3006 3006 3006 3005 3004 3005 3007 3007 3008 3009 3010 3010 3011 3011 3012 3012 3012 3012 3012 3012 3013 3012 3012 3012 3012 3012 3012 3012 3011 3011 3011 3010 3010 3010 3009 3009 3009 3009 3009 3010 3010 3009 3009 3009 3009 3009 3009 3009 3009 3010 3010 3011 3011 3012 3013 3013 3015 3016 3017 3018
2993 2994 2994 2994 2994 2994 2993 2992 2990 2986 2987 2995 2998 2997 2998 2997 2993 2989 2988 2989 2992 2993 2993 2993 2995 2997 3000 3001 3001 3000 3001 3003 3004 3003 3003 3004 3004 3005 3005 3006 3006 3007 3007 3008 3007 3007 3008 3007 3008 3008 3008 3008 3008 3007 3007 3006 3006 3006 3005 3005 3004 3004 3004 3004 3005 3005 3005 3005 3005 3004 3004 3004 3004 3004 3005 3005 3006 3007 3008 3009 3010 3011 3012 3013 3013 3014
2985 2985 2984 2984 2986 2987 2987 2986 2982 2978 2981 2989 2990 2987 2986 2984 2982 2984 2986 2987 2988 2989 2990 2991 2991 2992 2995 2996 2997 2998 2998 2998 2998 2998 2999 2999 2999 3000 3000 3000 3000 3001 3001 3002 3002 3002 3003 3003 3003 3003 3003 3003 3003 3002 3002 3002 3001 3001 3000 3000 3000 2999 3000 3000 3000 3000 3001 3000 3000 3000 3000 3000 3000 3001 3001 3002 3003 3004 3005 3006 3007 3008 3008 3009 3009 3010
2977 2976 2974 2975 2977 2978 2976 2972 2969 2969 2975 2979 2978 2976 2975 2976 2980 2984 2984 2983 2984 2985 2986 2986 2987 2988 2990 2990 2992 2993 2992 2993 2994 2994 2994 2994 2995 2995 2994 2994 2995 2995 2995 2996 2997 2997 2997 2997 2998 2998 2998 2998 2998 2997 2997 2997 2996 2996 2996 2995 2995 2995 2995 2996 2996 2996 2996 2996 2996 2997 2997 2997 2997 2998 2999 2999 3000 3001 3002 3003 3003 3004 3005 3005 3006 3007
2970 2970 2969 2969 2969 2968 2965 2963 2964 2967 2970 2972 2972 2972 2973 2975 2978 2980 2979 2979 2981 2980 2980 2981 2982 2983 2984 2985 2986 2986 2986 2987 2988 2989 2989 2989 2989 2989 2990 2990 2989 2989 2990 2990 2991 2991 2992 2992 2993 2993 2993 2993 2993 2993 2992 2992 2992 2992 2991 2991 2991 2992 2992 2992 2993 2993 2993 2993 2993 2994 2994 2994 2994 2995 2995 2996 2997 2998 2999 2999 3000 3001 3001 3002 3003 3004
2967 2965 2965 2964 2963 2962 2960 2961 2963 2965 2966 2968 2970 2971 2971 2972 2972 2973 2973 2974 2975 2975 2976 2977 2977 2978 2979 2979 2980 2981 2981 2981 2982 2982 2983 2984 2984 2985 2985 2985 2985 2985 2985 2985 2985 2986 2987 2987 2988 2988 2988 2988 2988 2988 2988 2988 2988 2988 2988 2988 2988 2988 2989 2989 2990 2990 2990 2990 2990 2990 2990 2990 2991 2991 2992 2993 2994 2994 2995 2996 2997 2997 2998 2999 2999 3000
2963 2962 2962 2961 2960 2959 2956 2957 2961 2962 2962 2965 2966 2965 2966 2967 2967 2967 2967 2968 2969 2971 2972 2972 2973 2974 2974 2975 2975 2975 2975 2975 2975 2976 2977 2978 2979 2979 2980 2980 2980 2980 2980 2980 2981 2981 2982 2982 2983 2983 2984 2984 2984 2984 2985 2985 2985 2985 2985 2985 2985 2985 2985 2986 2986 2986 2986 2986 2986 2986 2986 2986 2987 2987 2988 2989 2990 2991 2992 2993 2993 2994 2994 2995 2996 2996
2959 2959 2959 2958 2957 2956 2955 2955 2957 2956 2956 2958 2959 2958 2959 2960 2960 2961 2962 2963 2964 2966 2967 2968 2969 2969 2970 2971 2971 2970 2970 2970 2970 2970 2972 2973 2973 2974 2975 2975 2975 2975 2976 2976 2976 2976 2977 2978 2978 2979 2979 2980 2981 2981 2981 2981 2981 2981 2981 2981 2982 2982 2982 2982 2982 2982 2982 2983 2983 2983 2983 2983 2984 2985 2985 2986 2987 2988 2989 2989 2990 2990 2991 2992 2992 2993
2954 2954 2954 2954 2953 2952 2952 2953 2954 2952 2950 2951 2952 2952 2953 2954 2955 2956 2957 2958 2959 2960 2962 2963 2964 2965 2966 2966 2966 2966 2965 2965 2965 2965 2966 2967 2968 2969 2970 2970 2970 2971 2971 2971 2972 2972 2973 2973 2974 2974 2975 2976 2976 2977 2977 2977 2978 2978 2978 2978 2978 2978 2978 2979 2979 2979 2979 2980 2980 2980 2981 2981 2981 2982 2983 2983 2984 2985 2985 2986 2987 2987 2988 2989 2989 2990
2949 2949 2951 2951 2950 2948 2949 2950 2951 2948 2945 2945 2946 2947 2948 2949 2950 2951 2952 2953 2954 2955 2956 2957 2958 2959 2960 2960 2960 2961 2960 2960 2960 2960 2961 2962 2963 2964 2965 2966 2966 2966 2967 2967 2968 2968 2969 2969 2970 2971 2971 2972 2972 2973 2973 2974 2974 2974 2975 2975 2975 2975 2976 2976 2976 2976 2977 2977 2977 2978 2978 2978 2978 2979 2980 2980 2981 2982 2982 2983 2984 2984 2985 2986 2987 2987
2944 2946 2948 2947 2945 2945 2946 2947 2946 2944 2942 2942 2943 2944 2944 2945 2946 2946 2947 2948 2948 2948 2949 2950 2951 2952 2953 2954 2954 2954 2954 2954 2955 2955 2956 2958 2959 2960 2961 2961 2961 2962 2963 2963 2964 2965 2966 2966 2967 2967 2968 2968 2968 2969 2969 2970 2970 2971 2971 2972 2972 2973 2973 2973 2974 2974 2974 2975 2975 2975 2975 2975 2976 2976 2977 2977 2978 2979 2980 2980 2981 2982 2982 2983 2984 2985